Regional Weather Roundup
Issued by NWS

Home | Current Version | Previous Version | Text Only | Print | Product List | Glossary On
Versions: 1 2 3 4 5 6 7 8 9 10 11 12 13 14 15 16 17 18 19 20 21 22 23 24 25 26 27 28 29 30 31 32 33 34 35 36 37 38 39 40 41 42 43 44 45 46 47 48 49 50
000
ASUS44 KOUN 301310
RWROK

WEATHER ROUNDUP FOR OKLAHOMA
NATIONAL WEATHER SERVICE NORMAN OK
800 AM CDT THU MAR 30 2017

NOTE: "FAIR" INDICATES FEW OR NO CLOUDS BELOW 12,000 FEET WITH NO
      SIGNIFICANT WEATHER AND/OR OBSTRUCTIONS TO VISIBILITY.

OKZ001>007-009>012-014-015-017-301400-
NORTHWEST OKLAHOMA AND THE PANHANDLE

CITY           SKY/WX    TMP DP  RH WIND       PRES   REMARKS
GAGE           CLEAR     40  37  89 NW6       29.81R
GUYMON         CLEAR     36  34  92 W9        29.83R WCI  29
ENID/WOODRING  CLOUDY    46  41  81 MISG      29.72R
$$

OKZ016-021>023-033>039-044-045-301400-
SOUTHWEST OKLAHOMA

CITY           SKY/WX    TMP DP  RH WIND       PRES   REMARKS
LAWTON/REGL    CLEAR     47  43  86 W6        29.81F
LAWTON/FT SILL CLEAR     51  41  70 NW16G24   29.80R
FREDERICK      CLEAR     49  41  74 NW15      29.79F
CLINTON        CLEAR     43  38  82 NW9       29.82R
HOBART         CLEAR     45  40  82 NW13      29.83R
ALTUS AFB      CLEAR     47  38  71 NW7       29.82S
$$

OKZ018>020-024>031-301400-
CENTRAL OKLAHOMA

CITY           SKY/WX    TMP DP  RH WIND       PRES   REMARKS
OKLAHOMA CITY  CLOUDY    47  40  76 W12       29.76R
OKC/WILEY POST CLOUDY    48  41  76 W9        29.76R
OKC/TINKER AFB MOCLDY    47  39  74 NW17      29.75R
STILLWATER     CLOUDY    45  39  79 NW13G22   29.72R
GUTHRIE        CLOUDY    46  41  82 NW15      29.75R
$$

OKZ008-013-054>072-301400-
NORTHEAST OKLAHOMA

CITY           SKY/WX    TMP DP  RH WIND       PRES   REMARKS
TULSA          DRIZZLE   46  44  93 W15       29.68R
TULSA/JONES    CLOUDY    47  40  76 VRB7G16   29.70R
PONCA CITY     CLOUDY    43  39  86 NW10G18   29.69R
BARTLESVILLE   CLOUDY    45  42  89 W9        29.67S
MUSKOGEE       CLOUDY    48  41  76 W15       29.73S
$$

OKZ032-040>043-046>053-073>077-301400-
SOUTH CENTRAL/SOUTHEAST OKLAHOMA

CITY           SKY/WX    TMP DP  RH WIND       PRES   REMARKS
ARDMORE/DWNTWN CLOUDY    50  41  71 W3        29.80S
MCALESTER      CLOUDY    50  39  66 W9        29.75S
$$





USA.gov is the U.S. government's official web portal to all federal, state and local government web resources and services.